Weather History for Nuuk, Greenland

Change the Weather History Date:

Monday, January 21, 2013

  Actual Average Record
Temperature  
Mean Temperature 31 °F -  
Max Temperature 42 °F 19 °F 46 °F (2007)
Min Temperature 20 °F 13 °F 6 °F (2001)
Degree Days  
Heating Degree Days 34    
Moisture  
Dew Point 14 °F    
Average Humidity 61    
Maximum Humidity 93    
Minimum Humidity 14    
Precipitation  
Precipitation 0.04 in - - ()
Sea Level Pressure  
Sea Level Pressure 29.31 in    
Wind  
Wind Speed 11 mph ()    
Max Wind Speed 25 mph    
Max Gust Speed 39 mph    
Visibility 4.8 miles    
Events      
Averages and records for this station are not official NWS values.
T = Trace of Precipitation, MM = Missing Value Source: Averaged Metar Reports

Daily Weather History Graph

Daily Weather History Graph

Search for Another Location

Airport:

Trip Planner

Search our weather history database for the weather conditions in past years. The results will help you decide how hot, cold, wet, or windy it might be!

Date:

Astronomy

Jan. 21, 2013 Rise Set
Actual Time 9:38 AM WGT 3:38 PM WGT
Civil Twilight 8:35 AM WGT 4:41 PM WGT
Nautical Twilight 7:32 AM WGT 5:44 PM WGT
Astronomical Twilight 6:35 AM WGT 6:41 PM WGT
Moon 11:05 AM WGT (1/21) 5:06 AM WGT (1/21)
Length of Visible Light 8h 06m
Length of Day
5h 59m
Waxing Gibbous, 74% of the Moon is Illuminated
Jan 21
Waxing Gibbous
Jan 27
Full
Feb 3
Last Quarter
Feb 10
New
Feb 17
First Quarter

Hourly Weather History & Observations

Time (WGT) Temp. Windchill Dew Point Humidity Pressure Visibility Wind Dir Wind Speed Gust Speed Precip Events Conditions
12:00 AM 20 °F - 18 °F 91% 29.36 in 4 mi NNW 11.5 mph - -   Mist
12:20 AM 21.2 °F 12.6 °F 19.4 °F 93% 29.36 in - NNE 6.9 mph - N/A   Overcast
12:50 AM 21.2 °F 11.7 °F 19.4 °F 93% 29.36 in 3.1 mi North 8.1 mph - N/A   Overcast
1:20 AM 21.2 °F 12.6 °F 19.4 °F 93% 29.36 in 3.7 mi North 6.9 mph - N/A   Overcast
1:50 AM 21.2 °F 12.6 °F 19.4 °F 93% 29.36 in 3.1 mi NNE 6.9 mph - N/A   Overcast
2:20 AM 21.2 °F 10.9 °F 19.4 °F 93% 29.36 in 3.1 mi NNE 9.2 mph - N/A   Overcast
2:50 AM 21.2 °F 10.9 °F 19.4 °F 93% 29.36 in - NNE 9.2 mph - N/A   Overcast
3:00 AM 21 °F - 19 °F 90% 29.34 in 3 mi NNW 10.4 mph - -   Mist
3:20 AM 21.2 °F 10.9 °F 19.4 °F 93% 29.36 in 3.1 mi North 9.2 mph - N/A   Overcast
3:50 AM 21.2 °F 10.1 °F 19.4 °F 93% 29.36 in 3.1 mi NNE 10.4 mph - N/A   Overcast
4:20 AM 21.2 °F 10.1 °F 19.4 °F 93% 29.36 in 3.7 mi North 10.4 mph - N/A   Overcast
4:50 AM 21.2 °F 10.1 °F 19.4 °F 93% 29.36 in 3.1 mi North 10.4 mph - N/A   Overcast
5:20 AM 21.2 °F 10.1 °F 19.4 °F 93% 29.36 in 3.1 mi North 10.4 mph - N/A   Overcast
5:50 AM 21.2 °F 10.9 °F 19.4 °F 93% 29.36 in 3.1 mi NNE 9.2 mph - N/A   Overcast
6:00 AM 22 °F - 20 °F 89% 29.32 in 4 mi NNW 12.7 mph - -   Mist
6:20 AM 21.2 °F 10.1 °F 19.4 °F 93% 29.36 in 3.1 mi NNE 10.4 mph - N/A   Unknown
6:50 AM 23.0 °F 11.1 °F 21.2 °F 93% 29.36 in 1.6 mi NNE 12.7 mph - N/A   Mist
7:50 AM 21.2 °F 8.3 °F 19.4 °F 93% 29.30 in 6.2 mi NNE 13.8 mph - N/A   Overcast
8:50 AM 24.8 °F 14.0 °F 19.4 °F 80% 29.24 in 6.2 mi NE 11.5 mph - N/A   Mostly Cloudy
9:00 AM 23 °F - 21 °F 89% 29.21 in 25 mi North 12.7 mph - -   Clear
9:50 AM 33.8 °F 26.4 °F 15.8 °F 48% 29.24 in 6.2 mi ENE 9.2 mph - N/A   Mostly Cloudy
10:50 AM 39.2 °F 30.5 °F 15.8 °F 39% 29.27 in 6.2 mi Variable 16.1 mph 32.2 mph N/A   Mostly Cloudy
11:50 AM 41.0 °F 31.6 °F 14.0 °F 33% 29.27 in 6.2 mi East 20.7 mph 32.2 mph N/A   Mostly Cloudy
12:00 PM 42 °F - 11 °F 15% 29.25 in 31 mi East 19.6 mph - -   Clear
12:50 PM 39.2 °F 29.8 °F 5.0 °F 24% 29.30 in 6.2 mi East 18.4 mph - N/A   Mostly Cloudy
1:50 PM 35.6 °F 24.0 °F 8.6 °F 33% 29.30 in 6.2 mi East 23.0 mph 39.1 mph N/A   Scattered Clouds
2:50 PM 35.6 °F 26.2 °F 6.8 °F 30% 29.30 in 6.2 mi East 15.0 mph 28.8 mph N/A   Scattered Clouds
3:00 PM 37 °F - 5 °F 14% 29.29 in 28 mi East 25.3 mph - -   Unknown Precipitation
3:50 PM 35.6 °F 27.1 °F 8.6 °F 33% 29.33 in 6.2 mi ESE 12.7 mph - N/A   Scattered Clouds
4:50 PM 35.6 °F 27.5 °F 8.6 °F 33% 29.33 in 6.2 mi ESE 11.5 mph - N/A   Scattered Clouds
5:50 PM 35.6 °F 27.5 °F 5.0 °F 28% 29.33 in 6.2 mi ESE 11.5 mph - N/A   Scattered Clouds
6:00 PM 32 °F - 18 °F 43% 29.31 in 31 mi NW 9.2 mph - -   Partly Cloudy
6:50 PM 33.8 °F 25.3 °F 6.8 °F 32% 29.30 in 6.2 mi East 11.5 mph - N/A   Mostly Cloudy
7:50 PM 33.8 °F 26.4 °F 5.0 °F 30% 29.30 in 6.2 mi ENE 9.2 mph - N/A   Scattered Clouds
8:50 PM 33.8 °F 24.8 °F 6.8 °F 32% 29.27 in 6.2 mi East 12.7 mph - N/A   Partly Cloudy
9:00 PM 35 °F - 6 °F 16% 29.25 in 31 mi ENE 13.8 mph - -   Partly Cloudy
10:20 PM 33.8 °F 23.5 °F 6.8 °F 32% 29.21 in 6.2 mi East 16.1 mph - N/A   Partly Cloudy
10:50 PM 35.6 °F 25.5 °F 1.4 °F 24% 29.21 in 6.2 mi East 17.3 mph - N/A   Unknown
11:20 PM 33.8 °F 22.5 °F 3.2 °F 28% 29.18 in 6.2 mi East 19.6 mph - N/A   Unknown
11:50 PM 33.8 °F 23.2 °F 3.2 °F 28% 29.15 in 6.2 mi East 17.3 mph - N/A   Unknown